"2009-04-25 00:00:00",829764,7.753,103.2,8.34,1.386,15.37,104.8932,11.8,13.04,49.77,0,110.4,13.31,12.59,65.2
"2009-04-25 00:00:30",829765,6.321,98.9,6.532,1.141,12.2,104.8925,11.8,12.95,49.74,0,110.4,13.31,12.59,60.9
"2009-04-25 00:01:00",829766,7.041,107.9,6.947,1.275,13.65,104.8949,11.8,13.04,49.45,0,110.4,13.31,12.60,69.9
"2009-04-25 00:01:30",829767,5.822,105.9,4.636,0.926,11.37,104.8976,11.81,12.92,49.27,0,110.4,13.3,12.60,67.9
"2009-04-25 00:02:00",829768,6.952,105.2,5.733,0.808,11.95,104.8934,11.8,12.8,49.17,0,110.4,13.3,12.59,67.2
"2009-04-25 00:02:30",829769,6.211,100.5,1.767,0.248,10.95,104.8799,11.76,12.78,49.14,0,110.4,13.33,12.56,62.5
"2009-04-25 00:03:00",829770,6.386,102.8,3.342,0.382,11.82,104.867,11.73,12.92,49.49,0,110.4,13.33,12.53,64.8
"2009-04-25 00:03:30",829771,8.85,110.6,6.386,1.067,15.26,104.8667,11.73,13.01,49.78,0,110.3,13.3,12.52,72.6
"2009-04-25 00:04:00",829772,8.52,105.4,8.05,1.449,14.18,104.8694,11.74,12.87,50,0,110.4,13.3,12.53,67.4
"2009-04-25 00:04:30",829773,7.68,100.4,6.654,1.343,12.51,104.8697,11.74,12.93,50.57,0,110.4,13.3,12.53,62.4
"2009-04-25 00:05:00",829774,7.539,98.3,9.9,1.048,13.45,104.8706,11.74,12.92,50.27,0,110.4,13.3,12.53,60.3
"2009-04-25 00:05:30",829775,7.793,93.5,7.389,1.545,12.67,104.8621,11.72,12.87,49.71,0,110.4,13.3,12.51,55.5
"2009-04-25 00:06:00",829776,6.685,87.5,2.009,0.198,10.7,104.8556,11.7,12.72,49.41,0,110.4,13.33,12.50,49.5
"2009-04-25 00:06:30",829777,7.628,95.1,5.126,1.204,12.13,104.8404,11.66,12.79,49.56,0,110.4,13.31,12.46,57.1
"2009-04-25 00:07:00",829778,8.73,96.7,8.39,1.223,14.03,104.8376,11.66,12.85,49.72,0,110.4,13.31,12.45,58.7
"2009-04-25 00:07:30",829779,9.54,92.7,6.885,1.469,14.81,104.8376,11.66,12.92,49.92,0,110.4,13.31,12.45,54.7
"2009-04-25 00:08:00",829780,7.159,79.4,1.935,0.502,10.92,104.8286,11.63,12.79,49.85,0,110.4,13.31,12.43,41.4
"2009-04-25 00:08:30",829781,8.31,89,6.658,1.27,12.97,104.8089,11.58,12.76,49.81,0,110.4,13.31,12.38,51.0
"2009-04-25 00:09:00",829782,7.942,102.4,3.011,1.598,11.89,104.8038,11.57,12.72,50.14,0,110.4,13.31,12.36,64.4
"2009-04-25 00:09:30",829783,7.069,109,5.821,1.411,13.01,104.8035,11.57,12.71,50.24,0,110.4,13.31,12.36,71.0
"2009-04-25 00:10:00",829784,6.114,104.5,1.213,0.172,10.94,104.795,11.55,12.59,50.1,0,110.4,13.35,12.34,66.5
"2009-04-25 00:10:30",829785,6.957,106.9,6.787,1.39,12.97,104.7793,11.51,12.63,50.11,0,110.4,13.31,12.30,68.9
"2009-04-25 00:11:00",829786,8.37,111.9,7.699,1.325,14.38,104.77,11.48,12.79,50.24,0,110.4,13.31,12.28,73.9
"2009-04-25 00:11:30",829787,8.07,108.2,6.756,1.383,14.12,104.77,11.48,12.71,50.17,0,110.4,13.31,12.28,70.2
"2009-04-25 00:12:00",829788,7.744,108.4,6.408,1.393,12.43,104.7669,11.48,12.57,49.97,0,110.4,13.31,12.27,70.4
"2009-04-25 00:12:30",829789,7.525,109.4,7.679,1.21,13.22,104.7505,11.43,12.73,50.32,0,110.4,13.31,12.23,71.4
"2009-04-25 00:13:00",829790,6.249,101.5,5.228,0.99,11.53,104.7367,11.4,12.6,50.06,0,110.4,13.31,12.19,63.5
"2009-04-25 00:13:30",829791,7.203,108.8,8.15,1.285,12.68,104.7361,11.4,12.53,49.97,0,110.4,13.31,12.19,70.8
"2009-04-25 00:14:00",829792,6.237,106,3.165,0.521,10.9,104.7361,11.4,12.48,49.84,0,110.3,13.31,12.19,68.0
"2009-04-25 00:14:30",829793,6.889,113.2,6.125,1.394,13.61,104.7361,11.4,12.66,50.09,0,110.3,13.31,12.19,75.2
"2009-04-25 00:15:00",829794,7.472,112.9,7.792,1.386,14.01,104.7319,11.39,12.62,50.14,0,110.4,13.31,12.18,74.9
"2009-04-25 00:15:30",829795,5.796,103.2,2.148,0.167,10.73,104.7248,11.37,12.51,50.01,0,110.3,13.35,12.16,65.2
"2009-04-25 00:16:00",829796,7.367,116.5,7.9,1.512,12.51,104.7091,11.33,12.58,50.25,0,110.3,13.31,12.12,78.5
"2009-04-25 00:16:30",829797,8.52,120.2,7.279,1.236,14.12,104.7023,11.31,12.58,50.85,0,110.3,13.31,12.10,82.2
"2009-04-25 00:17:00",829798,6.894,109.3,4.566,1.17,11.69,104.7023,11.31,12.48,50.86,0,110.4,13.32,12.10,71.3
"2009-04-25 00:17:30",829799,6.832,110.7,4.545,1.045,12.12,104.7023,11.31,12.43,50.94,0,110.4,13.31,12.10,72.7
"2009-04-25 00:18:00",829800,8.12,109.4,6.808,1.188,13.54,104.7023,11.31,12.43,50.69,0,110.4,13.31,12.10,71.4
"2009-04-25 00:18:30",829801,7.678,109.8,6.342,1.441,14.16,104.6986,11.3,12.61,50.97,0,110.3,13.31,12.09,71.8
"2009-04-25 00:19:00",829802,7.092,111.6,10.9,1.075,13.32,104.693,11.29,12.52,50.85,0,110.3,13.31,12.08,73.6
"2009-04-25 00:19:30",829803,7.462,104,6.871,1.101,11.55,104.6823,11.26,12.34,50.62,0,110.3,13.31,12.05,66.0
"2009-04-25 00:20:00",829804,8,110.4,6.464,1.397,12.37,104.6707,11.23,12.41,50.71,0,110.3,13.31,12.02,72.4
"2009-04-25 00:20:30",829805,8.08,108.9,7.718,1.425,12.98,104.6685,11.22,12.54,50.85,0,110.3,13.31,12.02,70.9
"2009-04-25 00:21:00",829806,7.466,103.8,8.54,1.311,13.26,104.6685,11.22,12.41,50.71,0,110.3,13.31,12.02,65.8
"2009-04-25 00:21:30",829807,7.496,98.3,6.525,1.519,12.67,104.6685,11.22,12.41,50.88,0,110.3,13.31,12.02,60.3
"2009-04-25 00:22:00",829808,9.37,106.3,7.806,1.359,14.53,104.6651,11.22,12.51,51.33,0,110.3,13.31,12.01,68.3
"2009-04-25 00:22:30",829809,8.51,102.9,7.157,1.368,12.6,104.6502,11.18,12.41,51.17,0,110.3,13.31,11.97,64.9
"2009-04-25 00:23:00",829810,6.761,100.8,2.36,0.25,10.42,104.6349,11.14,12.25,50.91,0,110.3,13.35,11.93,62.8
"2009-04-25 00:23:30",829811,7.673,110.9,6.698,1.221,12.64,104.637,11.14,12.34,50.79,0,110.3,13.32,11.93,72.9
"2009-04-25 00:24:00",829812,8.01,111.4,6.703,1.356,13.67,104.637,11.14,12.43,50.91,0,110.3,13.32,11.93,73.4
"2009-04-25 00:24:30",829813,7.015,106,6.553,1.449,12.86,104.6382,11.15,12.37,50.9,0,110.3,13.32,11.94,68.0
"2009-04-25 00:25:00",829814,7.213,107.2,8.56,1.128,13.06,104.638,11.15,12.36,51.14,0,110.3,13.32,11.94,69.2
"2009-04-25 00:25:30",829815,7.904,113.3,6.281,1.133,14.51,104.6324,11.13,12.46,51.42,0,110.3,13.32,11.92,75.3
"2009-04-25 00:26:00",829816,7.794,116.2,6.757,1.292,12.7,104.6207,11.1,12.33,51.2,0,110.3,13.32,11.89,78.2
"2009-04-25 00:26:30",829817,6.524,105.9,1.743,0.303,10.37,104.612,11.08,12.19,50.87,0,110.3,13.36,11.87,67.9
"2009-04-25 00:27:00",829818,6.83,103.3,2.929,0.34,10.82,104.6108,11.08,12.29,50.93,0,110.3,13.36,11.87,65.3
"2009-04-25 00:27:30",829819,8.8,111.5,6.328,1.297,14.43,104.6129,11.08,12.34,51.14,0,110.3,13.33,11.87,73.5
"2009-04-25 00:28:00",829820,7.425,105.2,6.029,1.301,12.7,104.612,11.08,12.32,51.25,0,110.3,13.32,11.87,67.2
"2009-04-25 00:28:30",829821,8.32,108.3,6.213,1.39,14.82,104.613,11.08,12.37,51.52,0,110.3,13.32,11.87,70.3
"2009-04-25 00:29:00",829822,8.59,110.4,8.35,1.272,14.45,104.6071,11.07,12.32,51.8,0,110.3,13.32,11.86,72.4
"2009-04-25 00:29:30",829823,7.858,109.2,8.41,1.378,13.1,104.5976,11.04,12.34,51.69,0,110.3,13.33,11.83,71.2
"2009-04-25 00:30:00",829824,6.535,100.8,2.471,0.301,10.28,104.5859,11.01,12.13,51.65,0,110.3,13.36,11.80,62.8
"2009-04-25 00:30:30",829825,7.146,105.2,5.981,0.864,10.9,104.585,11.01,12.09,51.89,0,110.3,13.33,11.80,67.2
"2009-04-25 00:31:00",829826,7.478,107.3,6.237,1.215,11.57,104.5861,11.01,12.21,52.01,0,110.3,13.33,11.80,69.3
"2009-04-25 00:31:30",829827,8.43,110.6,7.383,1.396,13.73,104.59,11.02,12.32,52.04,0,110.3,13.33,11.81,72.6
"2009-04-25 00:32:00",829828,8.49,115.1,6.197,1.344,13.96,104.5938,11.03,12.2,51.93,0,110.3,13.33,11.82,77.1
"2009-04-25 00:32:30",829829,8.47,113.2,7.065,1.384,14.05,104.5853,11.01,12.32,52.17,0,110.3,13.33,11.80,75.2
"2009-04-25 00:33:00",829830,9.28,112.4,6.615,1.11,14.21,104.5738,10.98,12.29,51.82,0,110.3,13.33,11.77,74.4
"2009-04-25 00:33:30",829831,7.548,100.1,3.759,0.637,10.57,104.5632,10.95,12.05,51.37,0,110.3,13.33,11.74,62.1
"2009-04-25 00:34:00",829832,7.199,103.1,1.757,0.148,10.04,104.5665,10.96,12.02,51.35,0,110.3,13.36,11.75,65.1
"2009-04-25 00:34:30",829833,7.582,105.5,4.285,1.062,11.25,104.5659,10.96,12.15,51.56,0,110.3,13.33,11.75,67.5
"2009-04-25 00:35:00",829834,9,109.7,7.046,1.277,14.18,104.5659,10.96,12.21,51.53,0,110.3,13.33,11.75,71.7
"2009-04-25 00:35:30",829835,9.34,111.6,7.092,1.047,15.16,104.5583,10.94,12.22,51.45,0,110.3,13.32,11.73,73.6
"2009-04-25 00:36:00",829836,8.98,116.1,6.93,1.18,14.23,104.5496,10.92,12.17,51.53,0,110.3,13.32,11.71,78.1
"2009-04-25 00:36:30",829837,8.8,116.1,7.065,1.296,13.31,104.5367,10.89,12.13,51.57,0,110.3,13.32,11.68,78.1
"2009-04-25 00:37:00",829838,7.021,105.2,1.414,0.135,10.09,104.5347,10.88,11.94,51.38,0,110.3,13.35,11.67,67.2
"2009-04-25 00:37:30",829839,7.345,103.8,1.494,0.303,10.13,104.5347,10.88,11.92,51.23,0,110.3,13.35,11.67,65.8
"2009-04-25 00:38:00",829840,7.914,105.4,2.949,0.702,10.85,104.5347,10.88,12.01,51.26,0,110.3,13.33,11.67,67.4
"2009-04-25 00:38:30",829841,9.23,116.3,6.49,1.272,14.59,104.5268,10.86,12.17,51.44,0,110.3,13.33,11.65,78.3
"2009-04-25 00:39:00",829842,9.45,114.3,5.842,1.046,14.66,104.5147,10.83,12.15,51.48,0,110.3,13.33,11.62,76.3
"2009-04-25 00:39:30",829843,9.26,116.9,6.72,1.192,14.07,104.5025,10.8,12.12,51.54,0,110.3,13.33,11.59,78.9
"2009-04-25 00:40:00",829844,8.93,115,6.576,1.365,13.1,104.5008,10.8,12.11,51.64,0,110.3,13.33,11.58,77.0
"2009-04-25 00:40:30",829845,7.457,107.7,1.306,0.107,10.06,104.5008,10.8,11.86,51.55,0,110.3,13.36,11.58,69.7
"2009-04-25 00:41:00",829846,7.506,108,1.985,0.123,10.18,104.5008,10.8,11.85,51.75,0,110.3,13.36,11.58,70.0
"2009-04-25 00:41:30",829847,8.55,114.4,5.31,1.343,12.32,104.5008,10.8,11.96,51.99,0,110.3,13.33,11.58,76.4
"2009-04-25 00:42:00",829848,9.5,117.1,6.521,1.403,14.28,104.4986,10.79,12.01,52,0,110.3,13.33,11.58,79.1
"2009-04-25 00:42:30",829849,9.17,116.1,6.575,1.299,14.32,104.4924,10.77,12.09,52.14,0,110.3,13.33,11.56,78.1
"2009-04-25 00:43:00",829850,8.95,117.6,7.323,1.288,13.86,104.4805,10.74,12.08,52.4,0,110.3,13.33,11.53,79.6
"2009-04-25 00:43:30",829851,9.05,115.9,6.801,1.339,12.69,104.4678,10.71,11.89,52.07,0,110.3,13.33,11.50,77.9
"2009-04-25 00:44:00",829852,7.454,108.9,1.721,0.155,9.96,104.467,10.71,11.79,51.9,0,110.3,13.36,11.50,70.9
"2009-04-25 00:44:30",829853,7.503,106.9,0.872,0.315,10.2,104.467,10.71,11.82,51.95,0,110.3,13.36,11.50,68.9
"2009-04-25 00:45:00",829854,9.35,117.4,6.283,1.246,14.07,104.467,10.71,11.95,52.09,0,110.3,13.33,11.50,79.4
"2009-04-25 00:45:30",829855,9.4,117.3,7.15,1.126,14.84,104.4662,10.71,11.95,52.31,0,110.3,13.34,11.50,79.3
"2009-04-25 00:46:00",829856,9.4,118.3,7.043,1.212,13.75,104.4594,10.69,11.98,52.34,0,110.3,13.33,11.48,80.3
"2009-04-25 00:46:30",829857,9.39,119,7.232,1.361,13.8,104.4518,10.67,12,52.15,0,110.3,13.33,11.46,81.0
"2009-04-25 00:47:00",829858,8.77,114.8,6.741,1.006,11.79,104.4374,10.63,11.83,51.84,0,110.3,13.33,11.42,76.8
"2009-04-25 00:47:30",829859,8.32,109.9,0.856,0.134,9.93,104.4332,10.62,11.7,51.67,0,110.3,13.37,11.41,71.9
"2009-04-25 00:48:00",829860,8.68,112.3,1.136,0.22,10.25,104.4332,10.62,11.7,51.88,0,110.3,13.37,11.41,74.3
"2009-04-25 00:48:30",829861,10.16,121.8,6.838,1.296,13.86,104.4332,10.62,11.95,52.46,0,110.3,13.34,11.41,83.8
"2009-04-25 00:49:00",829862,10.28,122.3,6.12,1.152,14.32,104.4312,10.62,11.93,52.42,0,110.3,13.34,11.41,84.3
"2009-04-25 00:49:30",829863,9.3,123.7,6.442,1.239,13.76,104.4241,10.6,11.89,52.68,0,110.3,13.34,11.39,85.7
"2009-04-25 00:50:00",829864,9.94,125.8,5.875,1.04,14.09,104.4112,10.57,11.91,52.98,0,110.3,13.34,11.35,87.8
"2009-04-25 00:50:30",829865,8.13,114.4,0.738,0.112,10.17,104.3999,10.54,11.66,52.03,0,110.3,13.37,11.33,76.4
"2009-04-25 00:51:00",829866,7.933,115.5,1.778,0.252,10.02,104.3993,10.54,11.62,52.22,0,110.3,13.36,11.32,77.5
"2009-04-25 00:51:30",829867,9.18,120.3,6.54,1.564,12.87,104.3999,10.54,11.85,52.95,0,110.3,13.33,11.33,82.3
"2009-04-25 00:52:00",829868,9.93,121.6,6.221,1.343,13.94,104.3999,10.54,11.84,52.76,0,110.3,13.33,11.33,83.6
"2009-04-25 00:52:30",829869,9.96,126.8,6.715,1.252,15.03,104.3974,10.53,11.89,52.81,0,110.3,13.33,11.32,88.8
"2009-04-25 00:53:00",829870,9.98,127.7,5.875,1.201,13.92,104.3813,10.49,11.84,53.1,0,110.3,13.33,11.28,89.7
"2009-04-25 00:53:30",829871,9.76,123.3,6.511,1.228,12.47,104.3663,10.45,11.7,53.34,0,110.3,13.33,11.24,85.3
"2009-04-25 00:54:00",829872,8.44,117.9,1.555,0.15,9.9,104.3681,10.46,11.56,52.79,0,110.3,13.36,11.24,79.9
"2009-04-25 00:54:30",829873,9.27,123.1,6.633,1.149,11.61,104.3693,10.46,11.58,52.77,0,110.3,13.33,11.25,85.1
"2009-04-25 00:55:00",829874,10.63,129.4,5.816,1.107,14.58,104.3653,10.45,11.77,53.09,0,110.3,13.33,11.24,91.4
"2009-04-25 00:55:30",829875,9.94,127.3,6.774,1.301,13.9,104.3553,10.42,11.73,53.23,0,110.3,13.33,11.21,89.3
"2009-04-25 00:56:00",829876,10.05,130.1,6.82,1.252,13.94,104.348,10.4,11.79,53.61,0,110.3,13.33,11.19,92.1
"2009-04-25 00:56:30",829877,10.12,131.9,6.777,1.111,14.11,104.3416,10.39,11.7,53.31,0,110.3,13.33,11.18,93.9
"2009-04-25 00:57:00",829878,8.04,122.5,4.535,0.729,10.46,104.3413,10.39,11.45,52.71,0,110.3,13.34,11.18,84.5
"2009-04-25 00:57:30",829879,9.02,125.2,6.159,1.428,12.16,104.3413,10.39,11.53,52.95,0,110.3,13.34,11.18,87.2
"2009-04-25 00:58:00",829880,9.12,126.4,7.642,1.258,13.16,104.3412,10.39,11.57,52.7,0,110.3,13.34,11.18,88.4
"2009-04-25 00:58:30",829881,8.38,122.4,6.89,1.093,12.47,104.3393,10.38,11.64,52.74,0,110.3,13.34,11.17,84.4
"2009-04-25 00:59:00",829882,9.9,129.8,4.775,0.738,15.47,104.3406,10.39,11.6,52.68,0,110.3,13.34,11.17,91.8
"2009-04-25 00:59:30",829883,9.57,126.3,6.462,1.259,13.33,104.3344,10.37,11.61,52.76,0,110.3,13.34,11.16,88.3
"2009-04-25 01:00:00",829884,10.03,123.8,6.85,1.137,13.52,104.3252,10.35,11.54,52.72,0,110.3,13.34,11.13,85.8
"2009-04-25 01:00:30",829885,8.42,113.2,0.799,0.185,9.96,104.3225,10.34,11.38,52.61,0,110.3,13.38,11.13,75.2
"2009-04-25 01:01:00",829886,9.73,120,6.285,1.295,12.58,104.324,10.34,11.56,52.66,0,110.3,13.34,11.13,82.0
"2009-04-25 01:01:30",829887,10.07,124.8,5.894,1.144,14.23,104.324,10.34,11.56,52.7,0,110.3,13.34,11.13,86.8
"2009-04-25 01:02:00",829888,8.91,118,5.794,1.161,11.54,104.3269,10.35,11.47,52.66,0,110.2,13.34,11.14,80.0
"2009-04-25 01:02:30",829889,10.09,123.3,5.937,1.333,13.72,104.3194,10.33,11.53,52.77,0,110.3,13.34,11.12,85.3
"2009-04-25 01:03:00",829890,10.24,120.4,7.146,1.27,12.86,104.3089,10.3,11.58,52.87,0,110.3,13.34,11.09,82.4
"2009-04-25 01:03:30",829891,9.7,116,5.133,1.174,11.65,104.2963,10.27,11.38,52.71,0,110.2,13.34,11.06,78.0
"2009-04-25 01:04:00",829892,9.98,117,6.889,1.233,11.64,104.2975,10.27,11.36,52.75,0,110.2,13.34,11.06,79.0
"2009-04-25 01:04:30",829893,10.63,119.1,6.413,1.245,13.39,104.2972,10.27,11.53,52.98,0,110.3,13.34,11.06,81.1
"2009-04-25 01:05:00",829894,9.99,117.9,6.543,1.35,12.6,104.2817,10.23,11.38,52.84,0,110.2,13.34,11.02,79.9
"2009-04-25 01:05:30",829895,10.22,121.3,6.599,1.253,13.3,104.2662,10.19,11.5,52.98,0,110.2,13.34,10.98,83.3
"2009-04-25 01:06:00",829896,10.6,121.3,5.938,1.263,13.94,104.2654,10.19,11.5,53.11,0,110.2,13.34,10.98,83.3
"2009-04-25 01:06:30",829897,9.16,114,6.173,1.115,11.23,104.2654,10.19,11.3,53.07,0,110.2,13.34,10.98,76.0
"2009-04-25 01:07:00",829898,8.98,112,5.296,1.053,11.09,104.262,10.18,11.34,53.24,0,110.2,13.34,10.97,74.0
"2009-04-25 01:07:30",829899,10.36,118.8,5.824,1.218,13.55,104.2488,10.15,11.42,53.57,0,110.2,13.34,10.94,80.8
"2009-04-25 01:08:00",829900,9.33,110.9,5.875,0.906,11.45,104.2316,10.11,11.28,53.47,0,110.2,13.34,10.89,72.9
"2009-04-25 01:08:30",829901,11.09,120.8,5.12,0.903,14.26,104.2316,10.11,11.32,53.81,0,110.2,13.34,10.89,82.8
"2009-04-25 01:09:00",829902,10.03,118.8,6.392,1.256,13.16,104.2316,10.11,11.38,54.02,0,110.2,13.34,10.89,80.8
"2009-04-25 01:09:30",829903,9.54,118,6.874,1.268,12.42,104.2248,10.09,11.34,54.06,0,110.2,13.34,10.88,80.0
"2009-04-25 01:10:00",829904,9.61,115.2,6.44,1.264,11.93,104.2045,10.04,11.28,54.21,0,110.2,13.34,10.82,77.2
"2009-04-25 01:10:30",829905,9.72,114,5.892,1.213,11.74,104.1977,10.02,11.25,54.27,0,110.1,13.34,10.81,76.0
"2009-04-25 01:11:00",829906,9.96,115.7,6.841,1.246,12.47,104.1977,10.02,11.17,54.4,0,110.2,13.34,10.81,77.7
"2009-04-25 01:11:30",829907,9.92,116.7,6.09,1.337,12.48,104.1915,10,11.28,54.64,0,110.2,13.34,10.79,78.7
"2009-04-25 01:12:00",829908,10.42,119.1,6.463,1.257,13.78,104.1672,9.94,11.27,54.55,0,110.2,13.34,10.73,81.1
"2009-04-25 01:12:30",829909,10.34,119.2,6.209,1.137,13.51,104.1638,9.93,11.22,54.56,0,110.2,13.34,10.72,81.2
"2009-04-25 01:13:00",829910,9.06,113.1,4.496,1.116,10.18,104.1638,9.93,11,54.37,0,110.2,13.34,10.72,75.1
"2009-04-25 01:13:30",829911,9.67,117.8,6.956,1.159,12.32,104.1593,9.92,11.18,54.41,0,110.2,13.35,10.71,79.8
"2009-04-25 01:14:00",829912,10.4,122.6,5.369,1.178,13.65,104.1432,9.88,11.15,54.28,0,110.2,13.35,10.67,84.6
"2009-04-25 01:14:30",829913,9,113.9,4.487,1.066,11.12,104.1303,9.85,11.1,54.24,0,110.2,13.35,10.63,75.9
"2009-04-25 01:15:00",829914,10.38,120.2,5.897,1.137,13.9,104.13,9.85,11.14,54.33,0,110.2,13.35,10.63,82.2
"2009-04-25 01:15:30",829915,9.95,118.6,6.71,1.271,13.04,104.1294,9.84,11.16,54.33,0,110.2,13.35,10.63,80.6
"2009-04-25 01:16:00",829916,9.84,119.4,5.907,1.244,12.93,104.1195,9.82,11.08,54.38,0,110.2,13.35,10.61,81.4
"2009-04-25 01:16:30",829917,8.69,113,5.888,1.149,10.64,104.1128,9.8,10.92,54.41,0,110.2,13.35,10.59,75.0
"2009-04-25 01:17:00",829918,10.09,118.5,6.329,1.305,13.61,104.104,9.78,11.07,54.53,0,110.2,13.35,10.57,80.5
"2009-04-25 01:17:30",829919,8.61,110.6,3.899,0.999,10.63,104.0961,9.76,10.97,54.38,0,110.2,13.35,10.55,72.6
"2009-04-25 01:18:00",829920,9.59,117.1,6.652,1.299,12.81,104.0961,9.76,11.02,54.45,0,110.2,13.35,10.55,79.1
"2009-04-25 01:18:30",829921,9.95,118.6,5.736,1.183,13.58,104.0958,9.76,11.07,54.51,0,110.2,13.35,10.55,80.6
"2009-04-25 01:19:00",829922,9,115.1,7.035,1.276,11.87,104.0905,9.75,11,54.44,0,110.2,13.35,10.53,77.1
"2009-04-25 01:19:30",829923,9.46,114.7,5.95,1.271,11.64,104.0834,9.73,10.9,54.43,0,110.2,13.35,10.51,76.7
"2009-04-25 01:20:00",829924,9.45,115.7,6.745,1.246,11.9,104.0767,9.71,10.97,54.52,0,110.2,13.35,10.50,77.7
"2009-04-25 01:20:30",829925,9.58,115.5,6.928,1.193,11.87,104.0657,9.68,10.83,54.53,0,110.2,13.35,10.47,77.5
"2009-04-25 01:21:00",829926,9.97,116.5,6.592,1.177,13.17,104.0626,9.67,11.03,54.9,0,110.2,13.35,10.46,78.5
"2009-04-25 01:21:30",829927,9.67,118.3,6.532,1.318,12.87,104.0643,9.68,10.98,54.81,0,110.2,13.35,10.46,80.3
"2009-04-25 01:22:00",829928,9.81,119.8,6.242,1.26,12.87,104.0635,9.68,10.86,54.62,0,110.2,13.35,10.46,81.8
"2009-04-25 01:22:30",829929,9.22,114.4,5.943,1.322,11.59,104.0633,9.68,10.84,54.58,0,110.2,13.35,10.46,76.4
"2009-04-25 01:23:00",829930,9.16,114.4,6.421,1.267,11.74,104.0579,9.66,10.87,54.69,0,110.2,13.35,10.45,76.4
"2009-04-25 01:23:30",829931,9.02,115.2,6.589,1.227,12.09,104.0565,9.66,10.82,54.64,0,110.2,13.35,10.44,77.2
"2009-04-25 01:24:00",829932,9.11,115.7,6.449,1.286,12.01,104.0527,9.65,10.88,54.63,0,110.2,13.35,10.43,77.7
"2009-04-25 01:24:30",829933,10.02,118.6,6.322,1.158,13.69,104.0497,9.64,10.93,54.52,0,110.2,13.35,10.43,80.6
"2009-04-25 01:25:00",829934,9.67,116.6,6.334,1.322,11.95,104.0474,9.64,10.81,54.45,0,110.2,13.35,10.42,78.6
"2009-04-25 01:25:30",829935,8.76,113.1,5.886,1.096,10.83,104.0434,9.63,10.78,54.45,0,110.2,13.35,10.41,75.1
"2009-04-25 01:26:00",829936,9.32,116.7,6.074,1.255,11.58,104.0384,9.61,10.82,54.44,0,110.2,13.35,10.40,78.7
"2009-04-25 01:26:30",829937,8.96,117.8,6.736,1.27,11.56,104.0393,9.61,10.73,54.33,0,110.2,13.35,10.40,79.8
"2009-04-25 01:27:00",829938,9.09,118.5,6.401,1.269,12.42,104.0408,9.62,10.85,54.48,0,110.2,13.35,10.40,80.5
"2009-04-25 01:27:30",829939,9.65,121,6.209,1.271,13.42,104.0455,9.63,10.89,54.59,0,110.2,13.35,10.42,83.0
"2009-04-25 01:28:00",829940,9.82,120.2,5.982,1.172,13.16,104.0453,9.63,10.83,54.62,0,110.2,13.35,10.42,82.2
"2009-04-25 01:28:30",829941,9.56,117.9,6.61,1.227,12.29,104.0391,9.61,10.75,54.55,0,110.2,13.35,10.40,79.9
"2009-04-25 01:29:00",829942,9.09,116.4,6.624,1.289,11.51,104.0313,9.59,10.74,54.64,0,110.2,13.35,10.38,78.4
"2009-04-25 01:29:30",829943,8.48,114.4,5.653,1.151,10.84,104.0232,9.57,10.73,54.76,0,110.2,13.35,10.36,76.4
"2009-04-25 01:30:00",829944,8.74,116.7,6.389,1.308,12.08,104.0239,9.58,10.8,54.83,0,110.2,13.35,10.36,78.7
"2009-04-25 01:30:30",829945,9.54,123.2,5.662,1.076,13.84,104.023,9.57,10.84,54.86,0,110.2,13.36,10.36,85.2
"2009-04-25 01:31:00",829946,9.23,125.8,6.008,1.163,13.51,104.0254,9.58,10.78,54.87,0,110.2,13.36,10.36,87.8
"2009-04-25 01:31:30",829947,8.21,119.8,5.993,1.227,11.75,104.0263,9.58,10.81,54.96,0,110.2,13.36,10.37,81.8
"2009-04-25 01:32:00",829948,8.22,117.9,4.69,0.923,10.48,104.0266,9.58,10.67,54.93,0,110.2,13.36,10.37,79.9
"2009-04-25 01:32:30",829949,9.69,123.1,6.289,1.197,12.65,104.0218,9.57,10.69,55.65,0,110.2,13.36,10.36,85.1
"2009-04-25 01:33:00",829950,8.77,118.1,6.074,1.2,11.56,104.0142,9.55,10.71,56.24,0,110.2,13.36,10.34,80.1
"2009-04-25 01:33:30",829951,9.81,123,6.211,1.277,13.13,103.9979,9.51,10.81,56.36,0,110.2,13.36,10.29,85.0
"2009-04-25 01:34:00",829952,9.74,120.6,6.824,1.258,12.36,103.9959,9.5,10.75,55.8,0,110.2,13.36,10.29,82.6
"2009-04-25 01:34:30",829953,9.51,121.6,6.522,1.26,12.99,103.9959,9.5,10.8,55.67,0,110.2,13.36,10.29,83.6
"2009-04-25 01:35:00",829954,8.88,118.5,5.988,1.241,11.09,103.9886,9.48,10.62,55.39,0,110.2,13.36,10.27,80.5
"2009-04-25 01:35:30",829955,8.76,118.4,6.399,1.166,11.61,103.9725,9.44,10.68,55.5,0,110.2,13.36,10.23,80.4
"2009-04-25 01:36:00",829956,8.89,115.8,6.229,1.276,11.65,103.9626,9.42,10.62,55.49,0,110.2,13.36,10.20,77.8
"2009-04-25 01:36:30",829957,9.87,119.4,6.533,1.275,13.24,103.9621,9.42,10.67,55.87,0,110.2,13.36,10.20,81.4
"2009-04-25 01:37:00",829958,9.85,119.1,6.18,1.137,12.97,103.9618,9.42,10.71,56.24,0,110.2,13.36,10.20,81.1
"2009-04-25 01:37:30",829959,9.74,119.5,6.562,1.176,12.11,103.9545,9.4,10.52,56.07,0,110.2,13.37,10.18,81.5
"2009-04-25 01:38:00",829960,9.44,118.9,7.769,1.223,11.93,103.9392,9.36,10.6,56.32,0,110.2,13.37,10.14,80.9
"2009-04-25 01:38:30",829961,9.12,115.8,6.44,1.189,11.01,103.9291,9.33,10.54,56.24,0,110.2,13.37,10.12,77.8
"2009-04-25 01:39:00",829962,9.4,116.1,7.317,1.161,11.29,103.9282,9.33,10.53,56.27,0,110.2,13.37,10.12,78.1
"2009-04-25 01:39:30",829963,9.91,121.1,5.839,1.335,12.82,103.9242,9.32,10.6,56.65,0,110.2,13.37,10.10,83.1
"2009-04-25 01:40:00",829964,10.07,119.4,6.403,1.194,12.99,103.9031,9.27,10.6,56.71,0,110.2,13.37,10.05,81.4
"2009-04-25 01:40:30",829965,10.51,122.8,3.539,0.955,13.68,103.8943,9.24,10.54,56.72,0,110.2,13.36,10.03,84.8
"2009-04-25 01:41:00",829966,9.94,117.7,6.546,1.188,12.01,103.8943,9.24,10.55,56.93,0,110.2,13.36,10.03,79.7
"2009-04-25 01:41:30",829967,8.94,110.5,4.532,0.762,10.02,103.8842,9.22,10.43,56.87,0,110.2,13.36,10.00,72.5
"2009-04-25 01:42:00",829968,9.33,111.6,5.521,1.09,10.8,103.876,9.2,10.43,56.81,0,110.2,13.36,9.98,73.6
"2009-04-25 01:42:30",829969,9.88,119,6.275,1.299,12.35,103.8619,9.16,10.45,56.89,0,110.2,13.36,9.94,81.0
"2009-04-25 01:43:00",829970,10.24,123.3,5.215,0.983,13.85,103.8596,9.16,10.51,57.13,0,110.2,13.36,9.94,85.3
"2009-04-25 01:43:30",829971,9.7,119.9,6.672,1.333,12.16,103.8472,9.12,10.44,57.1,0,110.2,13.36,9.91,81.9
"2009-04-25 01:44:00",829972,10.16,119.6,6.382,1.272,12.58,103.8311,9.08,10.46,57.17,0,110.2,13.36,9.87,81.6
"2009-04-25 01:44:30",829973,8.75,113.4,5.23,0.963,10.21,103.8266,9.07,10.29,57.18,0,110.2,13.36,9.85,75.4
"2009-04-25 01:45:00",829974,9.72,118.1,7.005,1.163,11.38,103.8165,9.04,10.33,57.14,0,110.2,13.36,9.83,80.1
"2009-04-25 01:45:30",829975,10.05,123.5,6.678,1.16,12.9,103.8088,9.03,10.38,57.32,0,110.1,13.36,9.81,85.5
"2009-04-25 01:46:00",829976,9.88,119.2,7.284,1.228,12.16,103.7944,8.99,10.31,57.7,0,110.2,13.37,9.77,81.2
"2009-04-25 01:46:30",829977,9.57,119.8,6.459,1.288,11.79,103.7927,8.98,10.28,57.91,0,110.1,13.37,9.77,81.8
"2009-04-25 01:47:00",829978,9.74,121.8,7.497,1.129,12.18,103.7857,8.97,10.32,58.15,0,110.2,13.37,9.75,83.8
"2009-04-25 01:47:30",829979,8.67,115.2,6.605,1.046,9.96,103.7654,8.91,10.08,58.11,0,110.1,13.37,9.70,77.2
"2009-04-25 01:48:00",829980,9.1,117.2,6.425,1.273,10.8,103.7589,8.9,10.12,58.48,0,110.1,13.37,9.68,79.2
"2009-04-25 01:48:30",829981,10.63,122.7,6.076,1.268,13.07,103.7572,8.89,10.29,58.25,0,110.1,13.37,9.68,84.7
"2009-04-25 01:49:00",829982,10.81,121.8,6.15,1.19,13.18,103.742,8.85,10.17,57.63,0,110.1,13.37,9.64,83.8
"2009-04-25 01:49:30",829983,10.15,115,6.311,1.266,11.98,103.7277,8.82,10.19,57.79,0,110.1,13.37,9.60,77.0